When you browse on this site, cookies collect data to enhance your experience and personalize the content and advertising you see.
Visit our Privacy Policy to learn more. By continuing to use the site, you agree to this use of cookies and data.
  • In Belgium
  • List of Countries
  • For 7 days
  • Water Temperature
  • Weather Map
  • Weather Widgets
  • user-avatar
    Login

    Hourly Weather Brisbane

    Today, 19 August, Monday

    Time Temperature Precipitation Wind Pressure Humidity
    00:00 +16°C° 0 mm 1 mps 761 mmHg 83%
    01:00 +15°C° 0 mm 1 mps 761 mmHg 84%
    02:00 +15°C° 0 mm 1 mps 760 mmHg 85%
    03:00 +15°C° 0 mm 1 mps 760 mmHg 86%
    04:00 +15°C° 0 mm 1 mps 760 mmHg 87%
    05:00 +15°C° 0 mm 1 mps 760 mmHg 86%
    06:00 +15°C° 0 mm 1 mps 760 mmHg 85%
    07:00 +15°C° 0 mm 2 mps 761 mmHg 84%
    08:00 +17°C° 0 mm 2 mps 761 mmHg 70%
    09:00 +20°C° 0 mm 3 mps 761 mmHg 57%
    10:00 +24°C° 0 mm 2 mps 760 mmHg 42%
    11:00 +25°C° 0 mm 3 mps 760 mmHg 38%
    12:00 +27°C° 0 mm 4 mps 759 mmHg 34%
    13:00 +28°C° 0 mm 4 mps 759 mmHg 30%
    14:00 +28°C° 0 mm 5 mps 759 mmHg 29%
    15:00 +27°C° 0 mm 5 mps 759 mmHg 29%
    16:00 +26°C° 0 mm 4 mps 759 mmHg 29%
    17:00 +23°C° 0 mm 5 mps 760 mmHg 30%
    18:00 +21°C° 0 mm 5 mps 761 mmHg 30%
    19:00 +17°C° 0 mm 5 mps 762 mmHg 31%
    20:00 +16°C° 0 mm 5 mps 763 mmHg 33%
    21:00 +15°C° 0 mm 5 mps 763 mmHg 36%
    22:00 +14°C° 0 mm 4 mps 764 mmHg 39%
    23:00 +13°C° 0 mm 4 mps 764 mmHg 41%

    Tomorrow, 20 August, Tuesday

    Time Temperature Precipitation Wind Pressure Humidity
    00:00 +13°C° 0 mm 4 mps 765 mmHg 44%
    01:00 +12°C° 0 mm 3 mps 765 mmHg 46%
    02:00 +11°C° 0 mm 3 mps 765 mmHg 47%
    03:00 +11°C° 0 mm 3 mps 765 mmHg 49%
    04:00 +10°C° 0 mm 3 mps 765 mmHg 50%
    05:00 +10°C° 0 mm 2 mps 766 mmHg 50%
    06:00 +9°C° 0 mm 2 mps 766 mmHg 50%
    07:00 +9°C° 0 mm 2 mps 767 mmHg 50%
    08:00 +13°C° 0 mm 2 mps 767 mmHg 42%
    09:00 +15°C° 0 mm 2 mps 766 mmHg 35%
    10:00 +18°C° 0 mm 1 mps 766 mmHg 27%
    11:00 +20°C° 0 mm 1 mps 766 mmHg 24%
    12:00 +21°C° 0 mm 1 mps 765 mmHg 20%
    13:00 +23°C° 0 mm 1 mps 765 mmHg 17%
    14:00 +22°C° 0 mm 1 mps 764 mmHg 19%
    15:00 +22°C° 0 mm 1 mps 764 mmHg 20%
    16:00 +22°C° 0 mm 1 mps 764 mmHg 22%
    17:00 +19°C° 0 mm 1 mps 764 mmHg 31%
    18:00 +16°C° 0 mm 2 mps 764 mmHg 40%
    19:00 +14°C° 0 mm 2 mps 765 mmHg 49%
    20:00 +13°C° 0 mm 2 mps 765 mmHg 49%
    21:00 +13°C° 0 mm 2 mps 765 mmHg 49%
    22:00 +12°C° 0 mm 2 mps 765 mmHg 49%
    23:00 +12°C° 0 mm 2 mps 765 mmHg 51%

    Day after tomorrow, 21 August, Wednesday

    Time Temperature Precipitation Wind Pressure Humidity
    00:00 +10°C° 0 mm 2 mps 765 mmHg 53%
    01:00 +10°C° 0 mm 3 mps 765 mmHg 55%
    02:00 +10°C° 0 mm 3 mps 764 mmHg 57%
    03:00 +9°C° 0 mm 3 mps 764 mmHg 58%
    04:00 +9°C° 0 mm 3 mps 763 mmHg 60%
    05:00 +9°C° 0 mm 3 mps 764 mmHg 59%
    06:00 +9°C° 0 mm 3 mps 764 mmHg 59%
    07:00 +9°C° 0 mm 3 mps 764 mmHg 59%
    08:00 +12°C° 0 mm 3 mps 764 mmHg 51%
    09:00 +14°C° 0 mm 4 mps 764 mmHg 42%
    10:00 +18°C° 0 mm 4 mps 763 mmHg 34%
    11:00 +20°C° 0 mm 4 mps 762 mmHg 31%
    12:00 +22°C° 0 mm 4 mps 761 mmHg 28%
    13:00 +25°C° 0 mm 5 mps 760 mmHg 24%
    14:00 +25°C° 0 mm 5 mps 760 mmHg 26%
    15:00 +23°C° 0 mm 5 mps 759 mmHg 28%
    16:00 +23°C° 0 mm 6 mps 759 mmHg 29%
    17:00 +21°C° 0 mm 6 mps 759 mmHg 34%
    18:00 +19°C° 0 mm 6 mps 760 mmHg 39%
    19:00 +17°C° 0 mm 6 mps 760 mmHg 44%
    20:00 +16°C° 0 mm 5 mps 760 mmHg 47%
    21:00 +15°C° 0 mm 5 mps 761 mmHg 50%
    22:00 +14°C° 0 mm 4 mps 761 mmHg 53%
    23:00 +13°C° 0 mm 4 mps 761 mmHg 57%

    22 August, Thursday

    Time Temperature Precipitation Wind Pressure Humidity
    00:00 +13°C° 0 mm 4 mps 761 mmHg 60%
    01:00 +12°C° 0 mm 3 mps 761 mmHg 63%
    02:00 +11°C° 0 mm 3 mps 761 mmHg 65%
    03:00 +11°C° 0 mm 3 mps 761 mmHg 67%
    04:00 +10°C° 0 mm 3 mps 761 mmHg 68%
    05:00 +10°C° 0 mm 3 mps 761 mmHg 68%
    06:00 +10°C° 0 mm 3 mps 761 mmHg 67%
    07:00 +10°C° 0 mm 3 mps 761 mmHg 66%
    08:00 +13°C° 0 mm 3 mps 761 mmHg 58%
    09:00 +15°C° 0 mm 4 mps 761 mmHg 50%
    10:00 +19°C° 0 mm 4 mps 761 mmHg 41%
    11:00 +21°C° 0 mm 4 mps 760 mmHg 36%
    12:00 +22°C° 0 mm 4 mps 759 mmHg 31%
    13:00 +25°C° 0 mm 3 mps 758 mmHg 26%
    14:00 +25°C° 0 mm 4 mps 758 mmHg 27%
    15:00 +25°C° 0 mm 4 mps 758 mmHg 28%
    16:00 +25°C° 0 mm 5 mps 758 mmHg 29%
    17:00 +22°C° 0 mm 5 mps 758 mmHg 35%
    18:00 +20°C° 0 mm 5 mps 759 mmHg 41%
    19:00 +17°C° 0 mm 5 mps 759 mmHg 46%
    20:00 +16°C° 0 mm 5 mps 760 mmHg 49%
    21:00 +15°C° 0 mm 4 mps 761 mmHg 53%
    22:00 +14°C° 0 mm 4 mps 761 mmHg 56%
    23:00 +13°C° 0 mm 4 mps 762 mmHg 57%

    23 August, Friday

    Time Temperature Precipitation Wind Pressure Humidity
    00:00 +13°C° 0 mm 3 mps 762 mmHg 58%
    01:00 +12°C° 0 mm 3 mps 762 mmHg 60%
    02:00 +11°C° 0 mm 3 mps 762 mmHg 62%
    03:00 +12°C° 0 mm 2 mps 762 mmHg 63%
    04:00 +10°C° 0 mm 2 mps 762 mmHg 65%
    05:00 +10°C° 0 mm 2 mps 763 mmHg 65%
    06:00 +10°C° 0 mm 2 mps 763 mmHg 65%
    07:00 +10°C° 0 mm 2 mps 764 mmHg 65%
    08:00 +14°C° 0 mm 2 mps 764 mmHg 56%
    09:00 +16°C° 0 mm 3 mps 765 mmHg 46%
    10:00 +19°C° 0 mm 3 mps 765 mmHg 37%
    11:00 +20°C° 0 mm 3 mps 764 mmHg 34%
    12:00 +21°C° 0 mm 3 mps 764 mmHg 30%
    13:00 +22°C° 0 mm 3 mps 763 mmHg 27%
    14:00 +22°C° 0 mm 3 mps 763 mmHg 30%
    15:00 +21°C° 0 mm 3 mps 763 mmHg 33%
    16:00 +21°C° 0 mm 3 mps 763 mmHg 36%
    17:00 +19°C° 0 mm 3 mps 764 mmHg 46%
    18:00 +17°C° 0 mm 3 mps 765 mmHg 55%
    19:00 +16°C° 0 mm 3 mps 765 mmHg 64%
    20:00 +14°C° 0 mm 3 mps 766 mmHg 66%
    21:00 +13°C° 0 mm 3 mps 766 mmHg 68%
    22:00 +14°C° 0 mm 2 mps 766 mmHg 70%
    23:00 +13°C° 0 mm 2 mps 766 mmHg 71%

    24 August, Saturday

    Time Temperature Precipitation Wind Pressure Humidity
    00:00 +13°C° 0 mm 2 mps 766 mmHg 73%
    01:00 +12°C° 0 mm 2 mps 766 mmHg 74%
    02:00 +12°C° 0 mm 2 mps 766 mmHg 75%
    03:00 +10°C° 0 mm 2 mps 765 mmHg 76%
    04:00 +11°C° 0 mm 1 mps 765 mmHg 77%
    05:00 +10°C° 0 mm 2 mps 766 mmHg 77%
    06:00 +10°C° 0 mm 2 mps 766 mmHg 77%
    07:00 +10°C° 0 mm 2 mps 766 mmHg 76%
    08:00 +14°C° 0 mm 1 mps 766 mmHg 68%
    09:00 +18°C° 0 mm 1 mps 766 mmHg 59%
    10:00 +21°C° 0 mm 1 mps 766 mmHg 51%
    11:00 +22°C° 0 mm 1 mps 765 mmHg 48%
    12:00 +23°C° 0 mm 1 mps 765 mmHg 44%
    13:00 +24°C° 0 mm 1 mps 764 mmHg 41%
    14:00 +23°C° 0 mm 2 mps 763 mmHg 42%
    15:00 +23°C° 0 mm 2 mps 763 mmHg 43%
    16:00 +23°C° 0 mm 2 mps 763 mmHg 43%
    17:00 +20°C° 0 mm 2 mps 763 mmHg 52%
    18:00 +18°C° 0 mm 3 mps 763 mmHg 60%
    19:00 +16°C° 0 mm 3 mps 764 mmHg 68%
    20:00 +15°C° 0 mm 2 mps 764 mmHg 72%
    21:00 +15°C° 0 mm 2 mps 764 mmHg 76%
    22:00 +14°C° 0 mm 2 mps 764 mmHg 79%
    23:00 +14°C° 0 mm 1 mps 764 mmHg 80%
    Show more